This is the latest recevied weather packets stored in our database for station/object N5ATR. If no packets are shown the sender has not sent any weather packets the latest 10 day(s).
| Time | Temp. | Humidity | Pressure | Rain* | Wind** | Luminosity | Snow |
|---|---|---|---|---|---|---|---|
| 1778107327 | 13.33° C | 45% | 1013.8 hPa | 0 mm | - | 184 W/m² | - |
| 1778107023 | 15.56° C | 34% | 1013.9 hPa | 0 mm | - | 411 W/m² | - |
| 1778106718 | 16.11° C | 32% | 1013.2 hPa | 0 mm | - | 341 W/m² | - |
| 1778106416 | 16.11° C | 31% | 1012.9 hPa | 0 mm | - | 552 W/m² | - |
| 1778106111 | 16.67° C | 31% | 1013.3 hPa | 0 mm | - | 608 W/m² | - |
| 1778105810 | 16.11° C | 31% | 1013 hPa | 0 mm | - | 518 W/m² | - |
| 1778105507 | 16.11° C | 32% | 1013.2 hPa | 0 mm | - | 595 W/m² | - |
| 1778105204 | 15.56° C | 32% | 1013.2 hPa | 0 mm | - | 169 W/m² | - |
| 1778104898 | 14.44° C | 35% | 1013.3 hPa | 0 mm | - | 474 W/m² | - |
| 1778104596 | 15.56° C | 33% | 1013 hPa | 0 mm | - | 154 W/m² | - |
| 1778104291 | 13.89° C | 36% | 1013 hPa | 0 mm | - | 526 W/m² | - |
| 1778103988 | 15° C | 38% | 1013.2 hPa | 0 mm | - | 169 W/m² | - |
| 1778103686 | 13.89° C | 39% | 1013.2 hPa | 0 mm | - | 189 W/m² | - |
| 1778103384 | 15° C | 36% | 1013.3 hPa | 0 mm | - | 244 W/m² | - |
| 1778103081 | 15.56° C | 35% | 1013 hPa | 0 mm | - | 157 W/m² | - |
| 1778102778 | 15° C | 34% | 1012.7 hPa | 0 mm | - | 274 W/m² | - |
| 1778102473 | 16.67° C | 32% | 1013 hPa | 0 mm | - | 127 W/m² | - |
| 1778102169 | 16.11° C | 35% | 1013.2 hPa | 0 mm | - | 703 W/m² | - |
| 1778101866 | 16.11° C | 35% | 1013.3 hPa | 0 mm | - | 711 W/m² | - |
| 1778101562 | 13.89° C | 40% | 1013.7 hPa | 0 mm | - | 554 W/m² | - |
| 1778101259 | 13.33° C | 41% | 1013.4 hPa | 0 mm | - | 119 W/m² | - |
| 1778100956 | 15.56° C | 39% | 1013.7 hPa | 0 mm | - | 192 W/m² | - |
| 1778100651 | 15° C | 40% | 1013.7 hPa | 0 mm | - | 769 W/m² | - |
| 1778100349 | 13.33° C | 39% | 1013.4 hPa | 0 mm | - | 129 W/m² | - |
| 1778100046 | 13.33° C | 39% | 1013.4 hPa | 0 mm | - | 129 W/m² | - |
* Rain latest hour (hover to see other rain measurements)
** Current wind speed in m/s (hover to see current wind gust speed)